Williamtown Air Force Base, Australia

4:35 PM AEST on September 26, 2016 (GMT +1000)
Williamtown Military

Weather History for YWLM - June, 2013

Change the Weather History Date:

Monday, June 3, 2013

  Actual Average Record
Temperature  
Mean Temperature 55 °F -  
Max Temperature 64 °F - - ()
Min Temperature 46 °F - - ()
Degree Days  
Heating Degree Days 10    
Growing Degree Days 5 (Base 50)    
Moisture  
Dew Point 44 °F    
Average Humidity 69    
Maximum Humidity 93    
Minimum Humidity 36    
Precipitation  
Precipitation 0.00 in - - ()
Sea Level Pressure  
Sea Level Pressure 30.09 in    
Wind  
Wind Speed 10 mph ()    
Max Wind Speed 15 mph    
Max Gust Speed -    
Visibility 7.0 miles    
Events Rain    
T = Trace of Precipitation, MM = Missing Value Source: Averaged Metar Reports

Daily Weather History Graph

Daily Weather History Graph

Search for Another Location

Airport or City:

Trip Planner

Search our weather history database for the weather conditions in past years. The results will help you decide how hot, cold, wet, or windy it might be!

Date:

Astronomy

Jun. 03, 2013 Rise Set
Actual Time 6:47 AM AEST 4:53 PM AEST
Civil Twilight 6:20 AM AEST 5:20 PM AEST
Nautical Twilight 5:50 AM AEST 5:51 PM AEST
Astronomical Twilight 5:20 AM AEST 6:21 PM AEST
Moon 1:33 AM AEST (6/3) 1:22 PM AEST (6/3)
Length of Visible Light 11h 00m
Length of Day
10h 06m
Waning Crescent, 27% of the Moon is Illuminated
Jun 3
Waning Crescent
Jun 9
New
Jun 17
First Quarter
Jun 23
Full
Jun 30
Last Quarter

Hourly Weather History & Observations

Time (AEST) Temp. Windchill Dew Point Humidity Pressure Visibility Wind Dir Wind Speed Gust Speed Precip Events Conditions
12:00 AM 53 °F - 49 °F 82% 30.00 in - WSW 12.7 mph - -   Overcast
12:00 AM 53.6 °F - 50.0 °F 88% 29.98 in 6.2 mi WSW 12.7 mph - N/A   Mostly Cloudy
12:30 AM 53.6 °F - 50.0 °F 88% 29.98 in 6.2 mi WSW 11.5 mph - N/A Rain Light Rain Showers
1:00 AM 52 °F - 48 °F 83% 30.00 in - West 10.4 mph - -  
1:00 AM 51.8 °F - 48.2 °F 88% 29.98 in 6.2 mi West 10.4 mph - N/A   Mostly Cloudy
1:30 AM 53.6 °F - 48.2 °F 82% 29.98 in 6.2 mi West 11.5 mph - N/A   Overcast
2:00 AM 53.6 °F - 46.4 °F 77% 30.01 in 6.2 mi West 13.8 mph - N/A   Mostly Cloudy
2:30 AM 53.6 °F - 44.6 °F 72% 30.01 in 6.2 mi WSW 12.7 mph - N/A   Mostly Cloudy
3:00 AM 54 °F - 45 °F 62% 30.01 in - WSW 13.8 mph - -   Overcast
3:00 AM 53.6 °F - 44.6 °F 72% 30.01 in 6.2 mi WSW 13.8 mph - N/A   Overcast
3:30 AM 53.6 °F - 42.8 °F 67% 30.01 in 6.2 mi WSW 12.7 mph - N/A   Overcast
4:00 AM 53 °F - 43 °F 60% 30.03 in - West 11.5 mph - -  
4:00 AM 53.6 °F - 42.8 °F 67% 30.01 in 6.2 mi West 11.5 mph - N/A   Overcast
4:30 AM 53.6 °F - 42.8 °F 67% 30.04 in 6.2 mi WSW 12.7 mph - N/A   Drizzle
5:00 AM 53.6 °F - 42.8 °F 67% 30.04 in 6.2 mi WSW 11.5 mph - N/A   Overcast
5:30 AM 53.6 °F - 42.8 °F 67% 30.06 in 6.2 mi WSW 12.7 mph - N/A   Overcast
6:00 AM 53 °F - 43 °F 58% 30.08 in 19 mi WSW 12.7 mph - -   Mostly Cloudy
6:00 AM 53.6 °F - 42.8 °F 67% 30.06 in 6.2 mi WSW 12.7 mph - N/A   Mostly Cloudy
6:30 AM 51.8 °F - 41.0 °F 67% 30.06 in 6.2 mi West 12.7 mph - N/A   Mostly Cloudy
7:00 AM 52 °F - 41 °F 57% 30.09 in - WSW 10.4 mph - -  
7:00 AM 51.8 °F - 41.0 °F 67% 30.06 in 6.2 mi WSW 10.4 mph - N/A   Scattered Clouds
7:30 AM 51.8 °F - 41.0 °F 67% 30.09 in 6.2 mi West 11.5 mph - N/A   Scattered Clouds
8:00 AM 53.6 °F - 41.0 °F 62% 30.09 in 6.2 mi West 12.7 mph - N/A   Mostly Cloudy
8:30 AM 53.6 °F - 41.0 °F 62% 30.09 in 6.2 mi West 13.8 mph - N/A   Mostly Cloudy
9:00 AM 55.4 °F - 41.0 °F 58% 30.09 in 6.2 mi West 11.5 mph - N/A   Mostly Cloudy
9:30 AM 55.4 °F - 41.0 °F 58% 30.12 in 6.2 mi West 12.7 mph - N/A   Mostly Cloudy
10:00 AM 56 °F - 40 °F 45% 30.14 in - West 13.8 mph - -  
10:00 AM 55.4 °F - 41.0 °F 58% 30.12 in 6.2 mi West 13.8 mph - N/A   Mostly Cloudy
10:30 AM 57.2 °F - 41.0 °F 55% 30.12 in 6.2 mi WSW 13.8 mph - N/A   Mostly Cloudy
11:00 AM 59.0 °F - 42.8 °F 55% 30.12 in 6.2 mi WSW 11.5 mph - N/A Rain Light Rain Showers
11:30 AM 59.0 °F - 42.8 °F 55% 30.12 in 6.2 mi WSW 10.4 mph - N/A   Mostly Cloudy
12:00 PM 59 °F - 44 °F 46% 30.13 in 19 mi WSW 11.5 mph - -   Overcast
12:00 PM 59.0 °F - 44.6 °F 59% 30.12 in 6.2 mi WSW 11.5 mph - N/A   Overcast
12:30 PM 60.8 °F - 42.8 °F 52% 30.09 in 6.2 mi SW 13.8 mph - N/A   Mostly Cloudy
1:00 PM 62 °F - 43 °F 39% 30.10 in - WSW 13.8 mph - -  
1:00 PM 62.6 °F - 42.8 °F 48% 30.09 in 6.2 mi WSW 13.8 mph - N/A   Mostly Cloudy
1:30 PM 62.6 °F - 42.8 °F 48% 30.09 in 6.2 mi SW 11.5 mph - N/A   Mostly Cloudy
2:00 PM 64.4 °F - 42.8 °F 45% 30.09 in 6.2 mi SW 13.8 mph - N/A   Partly Cloudy
2:30 PM 64.4 °F - 42.8 °F 45% 30.09 in 6.2 mi SSW 13.8 mph - N/A   Partly Cloudy
3:00 PM 63 °F - 43 °F 36% 30.10 in 19 mi SW 15.0 mph - -   Partly Cloudy
3:00 PM 62.6 °F - 42.8 °F 48% 30.09 in 6.2 mi SW 15.0 mph - N/A   Partly Cloudy
3:30 PM 62.6 °F - 42.8 °F 48% 30.09 in 6.2 mi SSW 12.7 mph - N/A   Partly Cloudy
4:00 PM 62 °F - 44 °F 41% 30.09 in - SW 8.1 mph - -  
4:00 PM 62.6 °F - 44.6 °F 52% 30.09 in 6.2 mi SW 8.1 mph - N/A   Partly Cloudy
4:30 PM 60.8 °F - 44.6 °F 55% 30.09 in 6.2 mi SW 5.8 mph - N/A   Partly Cloudy
5:00 PM 55.4 °F - 48.2 °F 77% 30.09 in 6.2 mi WSW 4.6 mph - N/A   Partly Cloudy
5:30 PM 51.8 °F - 48.2 °F 88% 30.09 in 6.2 mi SW 3.5 mph - N/A   Partly Cloudy
6:00 PM 50 °F - 47 °F 84% 30.13 in - Calm Calm - -  
6:00 PM 50.0 °F - 46.4 °F 87% 30.12 in 6.2 mi Calm Calm - N/A   Partly Cloudy
6:30 PM 48.2 °F - 46.4 °F 93% 30.12 in - Calm Calm - N/A   Clear
7:00 PM 47 °F - 45 °F 91% 30.14 in - Calm Calm - -  
7:00 PM 48.2 °F - 44.6 °F 87% 30.12 in - Calm Calm - N/A   Clear
7:30 PM 46.4 °F - 44.6 °F 93% 30.12 in - Calm Calm - N/A   Clear
8:00 PM 46.4 °F - 44.6 °F 93% 30.15 in - Calm Calm - N/A   Clear
8:30 PM 46.4 °F 45.2 °F 44.6 °F 93% 30.15 in 6.2 mi West 3.5 mph - N/A   Unknown
9:00 PM 47 °F - 45 °F 91% 30.18 in - NW 6.9 mph - -  
9:00 PM 46.4 °F 42.9 °F 44.6 °F 93% 30.15 in 6.2 mi NW 6.9 mph - N/A   Unknown
9:30 PM 48.2 °F - 44.6 °F 87% 30.18 in 6.2 mi WNW 6.9 mph - N/A   Unknown
10:00 PM 48 °F - 45 °F 84% 30.19 in - WNW 5.8 mph - -  
10:00 PM 48.2 °F - 44.6 °F 87% 30.18 in 6.2 mi WNW 5.8 mph - N/A   Unknown
10:30 PM 46.4 °F 42.9 °F 44.6 °F 93% 30.15 in 6.2 mi NW 6.9 mph - N/A   Unknown
11:00 PM 46.4 °F 42.9 °F 44.6 °F 93% 30.18 in 6.2 mi NW 6.9 mph - N/A   Unknown
11:30 PM 46.4 °F 42.9 °F 42.8 °F 87% 30.18 in 6.2 mi WNW 6.9 mph - N/A   Unknown